Notices

What's New in latest Release from April 7th, 2021:

- Updated Glossary, including Speed of Maximum Gust, and Total Hourly Precipitation

- Updated national and regional climate services offices contacts and prices information

- Addition of station inventory lists for 1981-2010, 1971-2000, and 1961-1990 Normals.

If you haven't already, please take our survey and provide feedback about our website: https://eccc.sondage-survey.ca/f/LanguageSelection.aspx?s=442ca660-fcf1-47c0-95a9-59707d6fd709

Hourly Data Report for January 03, 2017

TORONTO CITY
ONTARIO

43°40'00.000" N
79°24'00.000" W
112.50 m
6158355
71508
XTO

Download Data

Hourly Data (January 2017)
Hourly Data Report for January 3, 2017
TIME
LST
Temp Definition
°C
Dew Point Definition
°C
Rel Hum Definition
%
Precip. Amount Definition
mm

Wind Dir Definition
10's deg

Wind Spd Definition
km/h
Visibility Definition
km
Stn Press Definition
kPa
Hmdx Definition


Wind Chill Definition


Weather Definition


00:00 4.2 2.7 90 0.0 LegendMM LegendMM   100.41     LegendNANA
01:00 4.0 2.9 93 0.0 LegendMM LegendMM   100.32     LegendNANA
02:00 4.0 3.1 94 0.0 LegendMM LegendMM   100.27     LegendNANA
03:00 4.1 3.2 94 0.2 LegendMM LegendMM   100.24     LegendNANA
04:00 4.1 3.2 94 0.2 LegendMM LegendMM   100.14     LegendNANA
05:00 4.0 3.4 96 0.2 LegendMM LegendMM   99.99     LegendNANA
06:00 4.1 3.5 96 0.0 LegendMM LegendMM   99.89     LegendNANA
07:00 4.3 3.8 96 0.6 LegendMM LegendMM   99.77     LegendNANA
08:00 4.4 3.9 97 0.2 LegendMM LegendMM   99.69     LegendNANA
09:00 4.5 4.0 97 0.0 LegendMM LegendMM   99.61     LegendNANA
10:00 4.5 4.0 97 0.2 LegendMM LegendMM   99.56     LegendNANA
11:00 4.5 4.0 96 0.3 LegendMM LegendMM   99.46     LegendNANA
12:00 4.5 3.9 96 1.2 LegendMM LegendMM   99.33     LegendNANA
13:00 4.6 4.0 96 1.1 LegendMM LegendMM   99.17     LegendNANA
14:00 4.7 4.0 95 1.9 LegendMM LegendMM   99.02     LegendNANA
15:00 4.6 3.8 95 1.5 LegendMM LegendMM   98.93     LegendNANA
16:00 4.6 3.8 95 0.7 LegendMM LegendMM   98.92     LegendNANA
17:00 4.5 3.7 95 0.2 LegendMM LegendMM   98.80     LegendNANA
18:00 4.4 3.5 94 0.0 LegendMM LegendMM   98.73     LegendNANA
19:00 4.4 3.6 95 1.0 LegendMM LegendMM   98.69     LegendNANA
20:00 4.0 3.2 95 0.8 LegendMM LegendMM   98.60     LegendNANA
21:00 3.7 2.9 95 0.5 LegendMM LegendMM   98.48     LegendNANA
22:00 3.5 2.5 93 0.2 LegendMM LegendMM   98.45     LegendNANA
23:00 3.4 2.4 93 0.0 LegendMM LegendMM   98.37     LegendNANA

Notes on Data Quality.

Legend

  • E = Estimated
  • M = Missing
  • NA = Not Available*
  • [empty] = Indicates an unobserved value
Date modified: